This is the latest recevied weather packets stored in our database for station/object DM1HF-13. If no packets are shown the sender has not sent any weather packets the latest 1 day(s).
| Time | Temp. | Humidity | Pressure | Rain* | Wind** | Luminosity | Snow |
|---|---|---|---|---|---|---|---|
| 1836274691 | 16.11° C | 73% | 1020.4 hPa | 0 mm | 0.89 m/s, 171° | 0 W/m² | - |
| 1836274540 | 16.11° C | 72% | 1020.3 hPa | 0 mm | 1.34 m/s, 176° | 0 W/m² | - |
| 1836274391 | 16.11° C | 73% | 1020.5 hPa | 0 mm | 0.89 m/s, 140° | 0 W/m² | - |
| 1836274241 | 16.11° C | 73% | 1020.3 hPa | 0 mm | 1.34 m/s, 160° | 0 W/m² | - |
| 1836274091 | 16.11° C | 74% | 1020.5 hPa | 0 mm | 1.34 m/s, 152° | 0 W/m² | - |
| 1778008816 | 16.67° C | 75% | 1007.6 hPa | 0 mm | 0.89 m/s, 290° | 0 W/m² | - |
| 1778008517 | 16.67° C | 75% | 1007.6 hPa | 0 mm | 0.45 m/s, 247° | 0 W/m² | - |
| 1778008216 | 16.67° C | 74% | 1007.6 hPa | 0 mm | 1.34 m/s, 260° | 0 W/m² | - |
| 1778007916 | 16.67° C | 74% | 1007.6 hPa | 0 mm | 0.45 m/s, 266° | 0 W/m² | - |
| 1778007616 | 16.67° C | 74% | 1007.6 hPa | 0 mm | 0.45 m/s, 228° | 0 W/m² | - |
| 1778007316 | 16.67° C | 74% | 1007.6 hPa | 0 mm | 0.45 m/s, 259° | 0 W/m² | - |
| 1778007017 | 17.22° C | 74% | 1007.7 hPa | 0 mm | 0.45 m/s, 332° | 0 W/m² | - |
| 1778006716 | 17.22° C | 74% | 1007.7 hPa | 0 mm | 0.45 m/s, 356° | 0 W/m² | - |
| 1778006416 | 17.22° C | 74% | 1007.9 hPa | 0 mm | 0.89 m/s, 339° | 0 W/m² | - |
| 1778006116 | 17.22° C | 74% | 1007.9 hPa | 0 mm | 0.45 m/s, 295° | 0 W/m² | - |
| 1778005816 | 17.22° C | 73% | 1007.9 hPa | 0 mm | 0.89 m/s, 321° | 0 W/m² | - |
| 1778005516 | 17.22° C | 73% | 1007.8 hPa | 0 mm | 1.34 m/s, 325° | 1 W/m² | - |
| 1778005216 | 17.22° C | 73% | 1007.9 hPa | 0 mm | 0.89 m/s, 304° | 1 W/m² | - |
| 1778004917 | 17.22° C | 73% | 1007.9 hPa | 0 mm | 0.89 m/s, 350° | 2 W/m² | - |
| 1778004616 | 17.22° C | 73% | 1007.9 hPa | 0 mm | 0 m/s | 2 W/m² | - |
| 1778004316 | 17.22° C | 73% | 1007.9 hPa | 0 mm | 0.45 m/s, 317° | 3 W/m² | - |
| 1778004021 | 17.78° C | 72% | 1008 hPa | 0 mm | 0.45 m/s, 1° | 4 W/m² | - |
| 1778003716 | 17.78° C | 72% | 1008 hPa | 0 mm | 0.89 m/s, 286° | 6 W/m² | - |
| 1778003416 | 17.78° C | 71% | 1008 hPa | 0 mm | 0.45 m/s, 336° | 7 W/m² | - |
| 1778003116 | 17.78° C | 71% | 1008.1 hPa | 0 mm | 0.89 m/s, 336° | 8 W/m² | - |
* Rain latest hour (hover to see other rain measurements)
** Current wind speed in m/s (hover to see current wind gust speed)